Temperature
18 18 18 18 17 17 17 17 17 17 17 17 17 17 18 18 18 18 18 18 18 18 18 18 18 18 18 17 17 17 17 17 17 17 17 17 17 17 17 17 17 17 17
17 17 17 17 17 17 17 17 17 17 17 17 17 17 17 17 17 17 18 18 18 18 18 18 18 18 18 18 17 17 17 17 17 17 16 17 17 17 17 17 17 17 17
17 17 17 17 17 17 17 17 17 17 17 17 17 17 17 17 17 17 17 17 17 18 18 18 18 18 18 18 18 17 17 17 17 17 17 16 16 17 17 17 17 17 17
16 16 17 17 17 17 17 17 17 17 17 17 17 17 17 17 17 17 17 17 17 17 17 18 18 18 18 18 18 18 18 17 17 17 17 17 16 16 17 17 17 17 17
15 16 16 16 17 17 17 17 17 17 17 17 17 17 17 17 17 17 17 17 17 17 17 17 17 18 18 18 18 18 18 18 17 17 17 17 17 17 17 17 17 17 16
15 15 16 16 16 16 16 16 16 16 16 16 17 17 17 17 17 17 16 17 17 16 17 17 16 17 17 18 18 18 18 18 17 17 17 17 17 17 17 17 17 17 17
15 15 15 16 16 16 16 16 16 16 16 16 16 17 17 17 17 16 16 17 17 17 16 16 16 16 17 17 18 18 18 18 17 17 17 17 17 17 17 17 17 17 17
15 15 15 15 15 15 16 16 16 16 16 16 16 17 18 18 17 17 16 16 16 17 16 16 16 16 16 17 17 18 18 18 18 17 17 17 17 17 17 17 17 17 17
15 15 16 15 15 15 15 16 15 15 16 16 16 17 18 20 20 18 16 16 16 16 16 16 16 16 16 16 17 17 17 18 18 17 17 17 17 17 17 17 17 17 17
15 15 15 15 15 15 15 15 15 15 15 16 16 16 16 17 18 19 17 17 16 15 16 16 16 16 16 16 16 17 17 17 17 17 17 17 17 17 17 17 17 17 17
14 15 15 15 15 15 15 15 15 15 15 16 16 16 16 15 16 17 19 18 16 16 16 15 16 16 16 16 16 16 17 17 17 17 17 17 17 17 17 17 17 17 17
14 14 14 14 15 15 15 15 15 15 15 15 16 16 16 16 16 17 17 17 17 17 16 16 16 16 16 16 16 16 17 17 17 17 17 17 17 17 17 17 16 17 17
13 13 13 14 14 14 14 14 15 15 15 15 15 15 16 16 17 17 17 17 16 16 16 15 15 15 15 16 16 16 17 17 17 17 17 17 17 17 17 16 16 16 16
13 13 13 13 13 13 13 14 14 14 14 14 15 15 15 15 16 16 16 16 16 17 16 16 15 14 15 16 16 16 16 17 17 17 17 17 17 17 16 16 16 16 16
12 12 12 12 12 12 12 13 13 13 13 13 14 14 14 15 15 15 15 15 16 18 18 15 15 14 15 15 16 16 16 17 17 17 17 17 17 17 16 16 16 16 16
11 11 11 11 11 12 12 12 12 12 12 12 13 13 13 14 14 14 15 15 15 16 17 16 15 14 14 14 15 15 16 16 16 16 16 16 16 16 16 16 16 15 15
10 10 10 10 11 11 11 11 11 11 11 12 12 12 13 13 13 14 14 14 14 15 15 16 15 14 14 14 14 15 15 15 16 16 16 16 16 16 16 16 15 15 15
9 9 10 10 10 11 11 11 11 11 11 11 11 11 11 12 12 13 13 13 14 14 14 15 14 14 14 14 14 14 14 14 15 15 15 16 16 16 15 15 15 15 15
8 8 9 9 10 10 10 11 11 11 10 10 10 11 11 11 11 12 12 13 13 13 13 14 14 14 13 13 13 13 13 13 13 13 14 14 15 15 15 15 14 14 14
7 7 8 8 9 9 10 10 10 10 10 10 10 10 10 10 10 11 11 12 12 13 13 13 14 14 13 13 13 12 12 12 12 12 13 13 13 14 14 14 14 13 13
6 6 7 7 8 9 9 10 10 10 10 10 10 10 10 10 10 10 10 11 11 12 13 13 13 13 13 13 12 12 12 12 12 12 12 12 12 12 12 12 13 12 12
5 6 6 6 7 8 9 9 10 10 10 10 10 10 10 10 10 10 10 10 10 11 12 12 13 13 13 13 12 12 12 11 11 11 11 11 11 11 11 12 12 12 12
5 5 5 6 6 7 8 9 9 9 10 10 9 9 10 10 9 10 10 10 10 10 11 11 12 13 13 13 12 12 12 12 11 11 11 11 10 10 11 11 11 11 11
4 4 5 5 5 6 7 8 9 9 9 9 9 9 9 10 9 9 9 10 10 10 11 11 12 12 13 13 13 13 12 11 11 11 10 10 9 10 10 11 10 11 11
4 4 4 4 5 6 6 7 8 8 8 9 9 9 9 9 9 9 9 9 10 10 10 11 11 12 12 12 12 12 11 11 10 10 10 10 9 9 9 9 9 9 9
4 4 4 4 5 5 6 7 7 8 8 8 8 9 9 9 9 9 9 9 10 10 10 10 11 11 12 12 12 12 12 11 11 9 9 9 9 9 7 7 8 8 8
Wind_Speed
12 11 9 10 12 12 11 11 12 13 13 14 14 15 15 15 15 14 11 13 16 17 18 18 18 19 20 21 25 27 28 27 27 27 27 25 23 22 22 21 20 19 18
11 11 12 11 11 12 12 11 12 12 12 12 14 15 16 16 16 16 15 13 18 19 18 17 17 17 18 19 21 24 27 28 28 28 28 28 27 25 24 23 22 22 21
12 11 11 10 10 11 12 11 12 10 12 13 15 16 14 14 14 15 16 14 14 19 20 18 17 17 18 18 19 22 24 27 28 28 29 29 29 28 26 26 25 24 23
11 9 9 9 9 9 8 9 10 10 11 11 11 12 12 12 14 13 14 14 14 13 17 20 18 18 18 19 20 21 22 25 26 28 29 29 29 29 29 28 27 26 25
7 6 6 6 7 7 8 9 9 9 10 10 10 11 11 11 11 12 12 13 13 12 12 14 18 17 18 19 20 21 21 23 24 27 28 29 29 29 29 29 29 27 27
4 4 4 5 6 6 7 8 8 8 8 8 10 9 8 9 9 10 11 11 11 12 13 12 12 15 20 19 19 20 20 21 23 24 26 27 28 28 29 30 30 29 28
5 3 4 4 5 6 8 8 8 8 8 7 7 8 9 11 11 10 10 11 11 12 12 12 12 12 12 21 21 19 20 20 22 23 24 25 27 28 28 29 29 30 29
6 5 4 5 6 7 9 8 7 8 8 7 7 8 8 9 9 11 10 10 11 10 11 12 11 10 11 11 15 21 20 20 21 23 24 24 25 27 28 28 29 29 30
7 6 6 7 8 9 9 9 9 10 9 8 9 8 7 6 4 7 8 8 8 8 9 8 10 10 11 11 10 16 19 18 19 21 23 24 26 26 27 28 28 29 29
7 6 6 7 8 9 9 10 11 9 10 9 8 9 9 5 5 4 7 8 8 8 8 7 8 9 10 10 10 6 11 13 15 17 19 23 25 26 26 27 28 28 28
6 5 5 6 7 8 9 11 9 11 10 10 9 8 9 7 8 7 5 5 7 8 8 8 8 8 9 10 9 8 10 10 12 13 14 17 22 25 25 26 26 27 27
6 5 4 4 5 6 7 9 10 12 11 11 9 8 8 8 8 8 8 7 6 6 6 6 6 6 6 8 6 5 1 6 10 11 12 13 17 21 24 25 26 26 26
7 5 5 4 4 5 6 7 9 11 12 12 11 10 9 9 7 7 8 7 5 5 5 5 3 1 1 2 1 5 1 3 6 9 11 12 14 17 21 23 24 24 24
10 7 7 6 6 5 5 6 7 9 10 12 13 13 10 10 9 8 8 7 6 7 6 5 4 3 2 1 2 5 2 3 1 5 8 10 12 14 16 19 20 20 20
12 11 10 9 8 7 6 6 6 7 8 10 12 13 12 11 10 10 9 8 8 7 7 6 5 5 3 3 2 3 5 7 5 3 4 6 8 10 13 15 16 16 16
15 14 14 13 11 10 9 8 7 7 7 8 8 11 12 12 11 10 10 9 9 8 5 6 5 5 3 3 5 6 8 9 11 8 8 7 6 7 9 11 13 13 13
16 16 16 16 15 14 12 10 10 9 9 9 8 10 12 13 10 10 11 10 10 9 8 6 6 5 4 4 5 6 6 7 10 12 12 12 11 11 10 10 11 10 11
16 17 17 17 17 17 15 14 13 11 11 11 10 9 10 9 13 11 10 12 11 10 10 9 7 7 7 7 7 7 6 8 10 14 15 15 15 15 14 13 12 11 11
17 17 17 18 18 18 17 17 16 14 13 12 12 11 10 9 9 9 11 11 10 11 11 9 8 7 7 8 8 7 8 8 9 12 15 16 16 16 16 16 15 15 16
17 17 18 18 19 19 19 18 17 16 15 14 13 12 12 12 10 7 7 9 9 10 12 10 9 8 8 9 9 8 6 6 7 8 11 13 16 17 17 17 17 18 20
18 18 18 18 19 18 18 18 17 17 16 15 14 14 14 13 13 10 7 6 7 8 10 11 10 9 9 10 10 8 8 7 6 5 7 7 8 9 11 14 16 18 20
18 18 18 18 19 18 17 16 16 17 16 15 15 14 14 14 15 15 13 10 8 9 9 10 11 11 11 12 11 10 10 9 5 4 6 6 6 7 8 11 15 18 20
18 18 18 18 18 19 15 13 16 18 16 15 15 13 13 14 16 14 15 14 12 12 12 11 11 11 12 13 14 14 13 11 7 9 8 7 7 9 10 14 17 19 21
16 16 16 17 16 16 13 14 15 18 17 15 14 14 14 12 13 14 13 13 12 11 12 12 12 11 10 12 15 14 13 10 11 7 5 7 8 9 10 13 16 18 21
15 15 15 15 14 13 12 13 14 14 14 14 14 14 14 14 11 11 11 11 11 10 11 14 13 10 8 9 13 13 14 14 10 5 3 6 9 10 10 10 13 16 19
13 13 13 13 12 11 10 13 13 11 12 12 12 12 12 12 11 14 12 11 11 10 9 11 12 11 9 11 17 17 16 15 11 6 5 7 11 9 7 8 10 13 15
Wind_Direction
237 231 229 232 238 241 235 234 241 241 239 238 238 235 236 236 239 239 232 196 204 216 226 229 228 230 231 228 224 222 221 219 216 214 212 212 213 211 209 206 205 204 204
245 239 234 232 236 241 245 245 246 247 246 246 244 241 238 236 235 236 239 221 208 214 220 226 225 226 229 230 230 228 225 223 220 217 215 213 212 213 213 210 208 206 206
247 242 240 238 239 240 242 245 250 250 248 245 245 243 239 238 235 232 235 236 225 210 212 217 222 224 226 227 229 228 226 225 221 218 217 215 213 212 213 213 211 209 207
249 246 241 243 244 245 240 240 244 244 245 247 247 244 241 239 238 236 236 234 237 232 210 209 216 222 226 227 230 229 226 222 218 216 216 216 214 213 212 213 214 211 208
266 254 246 249 249 245 241 244 237 240 243 242 243 239 239 237 237 236 236 239 236 238 240 201 204 218 225 229 230 230 226 220 216 214 215 216 216 215 213 212 213 213 211
307 287 259 251 249 245 239 237 242 238 246 240 245 242 233 233 231 233 235 237 236 236 238 238 221 218 218 224 228 229 226 221 215 214 215 218 219 218 217 214 213 213 213
325 311 275 266 246 245 245 238 231 230 235 235 243 245 240 236 237 238 239 246 242 239 241 240 242 243 220 213 220 226 225 222 218 215 215 217 220 220 218 217 215 214 213
307 294 273 261 249 244 243 241 230 242 237 225 241 248 245 231 222 232 233 232 241 237 232 230 233 234 247 237 214 211 221 223 219 214 213 214 217 220 219 217 217 217 216
317 293 269 258 253 247 240 234 228 231 240 229 229 242 246 245 218 195 216 224 221 225 228 225 228 232 234 244 242 205 208 217 220 219 215 214 216 217 218 216 216 217 217
328 317 285 264 255 249 246 237 229 233 238 238 221 233 256 293 271 218 193 203 208 218 233 233 235 230 233 240 236 245 200 213 220 225 222 218 216 215 215 216 216 215 217
315 318 310 286 265 256 249 245 237 231 232 240 235 220 224 228 240 260 242 201 204 214 221 232 243 246 241 242 244 231 189 212 221 225 227 224 218 215 215 216 216 216 217
297 293 295 297 285 273 261 252 245 233 236 238 244 237 225 225 223 228 240 237 233 223 218 235 239 240 243 248 238 60 150 227 230 229 229 231 224 217 214 216 217 218 217
289 280 278 277 280 282 279 270 256 251 239 233 232 236 237 239 242 232 236 237 239 236 218 215 185 196 237 272 311 8 210 224 230 228 228 227 226 222 216 215 217 218 218
282 280 260 252 252 257 265 270 269 261 254 242 236 235 237 237 235 230 230 230 230 225 207 186 147 145 133 138 49 292 140 86 187 216 220 221 222 221 217 212 212 213 213
274 263 252 246 239 236 240 248 257 263 265 257 248 238 236 236 231 229 227 225 232 229 198 171 178 149 147 107 64 68 71 66 72 115 175 199 208 209 207 205 203 201 200
277 270 260 251 243 233 226 229 240 243 250 257 261 260 245 241 233 227 224 221 225 241 233 167 174 152 128 127 98 87 85 86 70 80 95 113 134 162 179 185 186 188 191
280 271 260 254 249 241 232 225 234 231 235 242 248 253 251 250 243 231 224 220 217 221 226 201 178 163 167 155 126 105 89 81 76 74 84 93 102 111 124 141 152 162 173
279 273 266 258 251 246 239 233 234 234 232 234 235 240 250 250 247 242 232 222 216 215 220 215 194 183 175 158 132 117 102 87 82 74 79 84 90 95 102 110 118 127 136
283 275 267 260 254 250 246 239 236 237 235 235 233 229 232 237 254 250 242 232 221 214 219 219 206 182 167 152 136 120 108 100 91 87 82 82 85 89 93 99 105 109 112
286 278 270 262 255 249 245 242 236 234 235 235 232 230 227 219 226 245 257 250 238 222 213 217 209 189 172 166 158 149 135 118 103 91 85 88 89 87 89 94 100 104 105
287 281 274 265 256 249 242 237 236 232 230 234 233 229 225 216 209 209 226 251 261 242 219 212 209 199 182 173 176 170 148 129 103 115 113 111 110 105 100 97 99 104 105
290 284 276 268 258 249 239 226 229 236 232 231 235 232 224 208 206 203 206 215 238 252 237 220 213 208 195 186 180 168 155 155 137 140 123 114 116 110 106 100 105 108 109
291 287 281 272 261 253 246 221 215 231 231 230 231 230 229 212 196 203 201 205 218 237 252 253 237 225 205 190 180 176 177 173 146 149 132 115 112 102 98 100 107 110 111
290 286 282 276 266 253 233 215 205 223 230 228 227 225 226 222 201 198 198 201 210 218 229 243 250 249 237 198 184 179 159 126 116 123 123 117 115 107 104 109 108 111 113
291 286 283 276 266 250 223 202 200 218 223 226 226 223 220 220 195 186 208 210 212 217 219 228 242 258 277 203 173 159 150 144 138 138 129 120 126 115 110 115 114 112 116
291 286 282 275 263 243 204 188 197 217 220 223 222 223 220 223 187 181 213 221 221 219 215 214 223 230 225 182 167 172 169 162 149 146 166 138 144 131 120 131 139 138 128
Height
1517 1518 1518 1520 1523 1525 1525 1526 1527 1528 1529 1530 1531 1531 1532 1533 1535 1536 1537 1537 1539 1541 1543 1545 1547 1549 1551 1554 1556 1559 1561 1563 1565 1567 1569 1571 1573 1575 1578 1580 1581 1583 1585
1511 1511 1512 1513 1515 1518 1520 1520 1521 1522 1523 1524 1525 1526 1526 1528 1529 1529 1532 1533 1533 1536 1537 1539 1542 1544 1546 1548 1551 1553 1555 1558 1560 1563 1565 1567 1569 1572 1574 1577 1579 1581 1583
1503 1504 1505 1507 1508 1510 1512 1514 1515 1516 1517 1518 1519 1520 1521 1522 1523 1524 1526 1528 1530 1530 1532 1534 1536 1539 1541 1543 1545 1548 1550 1552 1555 1558 1560 1563 1565 1567 1570 1573 1575 1578 1580
1495 1496 1498 1500 1502 1504 1506 1508 1509 1511 1511 1512 1513 1514 1515 1516 1517 1519 1521 1523 1525 1527 1527 1528 1531 1533 1535 1538 1540 1542 1545 1547 1550 1552 1555 1558 1560 1563 1565 1568 1571 1574 1576
1488 1489 1491 1494 1496 1499 1501 1503 1504 1505 1506 1507 1508 1508 1510 1511 1512 1514 1516 1518 1520 1521 1523 1523 1524 1527 1529 1531 1534 1536 1539 1541 1544 1547 1550 1553 1556 1558 1561 1563 1566 1569 1572
1484 1484 1486 1489 1491 1494 1496 1498 1499 1500 1502 1503 1504 1505 1506 1507 1508 1510 1511 1513 1515 1516 1518 1519 1520 1521 1522 1525 1527 1530 1533 1536 1538 1541 1544 1547 1550 1553 1556 1559 1561 1564 1567
1482 1481 1483 1485 1488 1490 1492 1495 1496 1497 1499 1500 1501 1502 1503 1504 1505 1505 1506 1508 1510 1512 1513 1514 1516 1518 1519 1519 1521 1524 1527 1530 1532 1535 1538 1541 1545 1548 1551 1554 1556 1559 1562
1481 1481 1481 1483 1485 1487 1489 1491 1491 1494 1496 1497 1498 1499 1500 1501 1499 1500 1501 1502 1504 1506 1508 1509 1511 1512 1514 1516 1517 1518 1521 1524 1526 1529 1532 1536 1539 1542 1546 1548 1551 1554 1557
1481 1480 1480 1481 1483 1484 1486 1487 1489 1490 1493 1494 1495 1497 1497 1495 1496 1497 1497 1498 1499 1502 1504 1505 1506 1508 1509 1511 1513 1514 1515 1518 1521 1524 1527 1530 1533 1536 1540 1542 1546 1549 1551
1479 1478 1478 1479 1480 1482 1483 1485 1486 1487 1489 1491 1491 1492 1494 1494 1495 1494 1495 1495 1496 1498 1500 1502 1503 1504 1505 1506 1508 1509 1511 1513 1516 1518 1521 1524 1527 1530 1534 1537 1540 1543 1546
1477 1476 1475 1475 1476 1477 1479 1481 1482 1484 1486 1487 1488 1489 1490 1491 1492 1493 1492 1494 1495 1495 1497 1497 1499 1500 1501 1503 1504 1506 1506 1508 1511 1513 1516 1519 1521 1525 1528 1531 1534 1537 1540
1476 1474 1472 1472 1472 1473 1474 1475 1477 1479 1480 1482 1483 1485 1487 1488 1489 1490 1490 1491 1492 1493 1493 1494 1494 1495 1496 1498 1500 1500 1501 1504 1506 1508 1511 1513 1516 1519 1522 1525 1528 1531 1533
1474 1472 1470 1469 1468 1468 1468 1469 1471 1473 1475 1476 1478 1480 1482 1484 1486 1486 1487 1488 1489 1490 1490 1490 1490 1490 1491 1492 1494 1495 1497 1499 1501 1503 1506 1508 1511 1514 1517 1520 1522 1525 1527
1471 1469 1467 1466 1465 1464 1464 1464 1465 1466 1468 1470 1472 1474 1477 1479 1481 1482 1484 1485 1486 1487 1487 1488 1487 1486 1487 1488 1489 1491 1493 1494 1496 1499 1501 1503 1506 1509 1512 1515 1517 1520 1522
1466 1464 1463 1462 1461 1460 1460 1459 1459 1460 1461 1463 1466 1468 1470 1474 1475 1477 1479 1481 1483 1482 1483 1484 1485 1484 1485 1485 1486 1488 1489 1491 1493 1494 1497 1499 1501 1504 1507 1510 1512 1515 1517
1459 1458 1457 1457 1456 1455 1455 1455 1455 1455 1455 1456 1458 1461 1464 1467 1470 1472 1474 1475 1477 1479 1480 1481 1482 1483 1483 1484 1484 1485 1486 1488 1489 1491 1493 1495 1498 1500 1503 1506 1508 1511 1513
1450 1450 1450 1450 1450 1450 1450 1449 1450 1450 1450 1450 1451 1453 1455 1459 1463 1466 1468 1470 1472 1474 1477 1478 1479 1480 1480 1481 1482 1483 1483 1484 1486 1487 1489 1492 1494 1497 1500 1502 1505 1508 1510
1442 1441 1441 1441 1442 1443 1443 1444 1444 1445 1445 1445 1446 1447 1447 1450 1454 1458 1461 1464 1466 1469 1472 1474 1476 1477 1477 1479 1479 1480 1481 1482 1483 1484 1487 1489 1492 1494 1497 1500 1502 1505 1507
1432 1432 1431 1431 1432 1434 1435 1436 1438 1439 1439 1440 1440 1441 1442 1443 1445 1449 1453 1457 1460 1463 1466 1470 1471 1473 1475 1476 1476 1478 1479 1480 1481 1483 1485 1487 1490 1492 1495 1498 1500 1503 1505
1423 1422 1421 1421 1422 1423 1425 1428 1429 1431 1432 1434 1434 1435 1437 1437 1439 1440 1444 1448 1453 1457 1461 1464 1467 1469 1470 1472 1473 1475 1477 1479 1480 1482 1484 1486 1489 1491 1494 1497 1499 1502 1505
1414 1412 1411 1410 1411 1413 1415 1418 1421 1423 1425 1427 1428 1429 1431 1432 1433 1435 1437 1440 1445 1450 1454 1458 1461 1464 1466 1467 1470 1472 1474 1477 1479 1481 1484 1486 1489 1491 1494 1496 1499 1502 1505
1406 1403 1401 1400 1400 1402 1404 1407 1412 1415 1417 1419 1421 1423 1425 1426 1427 1429 1432 1434 1438 1442 1447 1452 1455 1458 1460 1463 1466 1469 1471 1474 1477 1480 1483 1486 1489 1492 1494 1496 1500 1503 1506
1397 1394 1392 1390 1389 1391 1394 1397 1402 1407 1410 1412 1414 1416 1419 1420 1422 1425 1426 1429 1433 1436 1440 1445 1449 1453 1456 1458 1461 1464 1468 1472 1474 1477 1482 1485 1489 1491 1494 1497 1500 1504 1507
1389 1385 1382 1381 1380 1381 1384 1388 1393 1398 1402 1405 1407 1410 1413 1415 1418 1420 1422 1425 1428 1430 1433 1438 1442 1447 1452 1455 1457 1461 1465 1468 1472 1477 1481 1484 1488 1491 1495 1498 1502 1505 1508
1381 1377 1374 1372 1371 1372 1375 1380 1385 1391 1395 1398 1401 1404 1406 1410 1412 1415 1418 1421 1423 1425 1428 1432 1437 1441 1446 1450 1453 1457 1460 1464 1468 1473 1478 1481 1486 1491 1496 1499 1503 1506 1509
1374 1371 1367 1365 1365 1366 1368 1373 1379 1384 1389 1392 1395 1397 1400 1404 1407 1410 1414 1416 1418 1420 1423 1427 1431 1435 1440 1444 1448 1451 1455 1459 1463 1469 1474 1479 1484 1488 1496 1501 1503 1507 1510